DW6885 Weather Reports


Display with metric or nautical units.
time (UTC)temp
F
wind
direction
speed
MPH
gust
MPH
rain 1hr
in
rain 24hr
in
rain mn
in
humidity
%
barometer
mb
20160630172804 78 331 1.0 10.0 0.00 0.00 0.00 40 1014.0
20160630171307 78 144 1.0 6.0 0.00 0.00 0.00 41 1013.9
20160630165809 78 338 2.0 5.0 0.00 0.00 0.00 39 1014.0
20160630164301 78 49 2.0 6.0 0.00 0.00 0.00 40 1014.0
20160630162757 77 164 0.0 6.0 0.00 0.00 0.00 44 1014.1
20160630161300 77 36 1.0 5.0 0.00 0.00 0.00 47 1014.2
20160630155751 76 226 1.0 8.0 0.00 0.00 0.00 53 1014.2
20160630154251 76 284 1.0 4.0 0.00 0.00 0.00 54 1014.2
20160630152750 76 300 0.0 4.0 0.00 0.00 0.00 55 1014.2
20160630151248 76 5 1.0 5.0 0.00 0.00 0.00 49 1014.2
20160630145749 75 199 1.0 6.0 0.00 0.00 0.00 53 1014.3
20160630144247 74 346 0.0 6.0 0.00 0.00 0.00 57 1014.1
20160630142740 73 315 1.0 6.0 0.00 0.00 0.00 54 1014.2
20160630141242 73 5 1.0 5.0 0.00 0.00 0.00 58 1014.3
20160630135736 72 336 1.0 5.0 0.00 0.00 0.00 60 1014.4
20160630134238 71 230 0.0 4.0 0.00 0.00 0.00 65 1014.4
20160630132728 70 337 0.0 5.0 0.00 0.00 0.00 65 1014.3
20160630131226 69 320 0.0 4.0 0.00 0.00 0.00 67 1014.4
20160630125720 67 240 0.0 4.0 0.00 0.00 0.00 70 1014.4
20160630124223 66 186 0.0 4.0 0.00 0.00 0.00 76 1014.4
20160630122718 66 238 1.0 4.0 0.00 0.00 0.00 76 1014.3
20160630121211 63 99 0.0 3.0 0.00 0.00 0.00 81 1014.1
20160630115712 61 24 0.0 4.0 0.00 0.00 0.00 90 1014.0
20160630114201 59 355 0.0 2.0 0.00 0.00 0.00 99 1013.9
20160630112700 56 51 0.0 1.0 0.00 0.00 0.00 99 1013.7
20160630111156 55 51 0.0 0.0 0.00 0.00 0.00 99 1013.5
20160630105655 55 51 0.0 0.0 0.00 0.00 0.00 99 1013.4
20160630104154 54 51 0.0 0.0 0.00 0.00 0.00 99 1013.3
20160630102655 53 51 0.0 0.0 0.00 0.00 0.00 98 1013.2
20160630101153 53 51 0.0 0.0 0.00 0.00 0.00 98 1013.1
20160630095649 53 51 0.0 0.0 0.00 0.00 0.00 98 1012.9
20160630094150 53 51 0.0 0.0 0.00 0.00 0.00 98 1012.7
20160630092646 53 51 0.0 0.0 0.00 0.00 0.00 97 1012.5
20160630091144 53 51 0.0 0.0 0.00 0.00 0.00 97 1012.5
20160630085650 54 51 0.0 0.0 0.00 0.00 0.00 97 1012.4
20160630084144 54 51 0.0 0.0 0.00 0.00 0.00 97 1012.2
20160630082637 54 51 0.0 0.0 0.00 0.00 0.00 97 1012.0
20160630081138 55 51 0.0 0.0 0.00 0.00 0.00 97 1011.9
20160630075633 55 51 0.0 0.0 0.00 0.00 0.00 97 1011.8
20160630074131 55 51 0.0 0.0 0.00 0.00 0.00 97 1011.8
20160630072629 56 51 0.0 0.0 0.00 0.00 0.00 97 1011.6
20160630071128 56 51 0.0 2.0 0.00 0.00 0.00 98 1011.6
20160630065627 56 51 0.0 0.0 0.00 0.09 0.00 97 1011.5
20160630064126 56 51 0.0 0.0 0.00 0.09 0.00 97 1011.5
20160630062626 56 51 0.0 1.0 0.00 0.09 0.00 97 1011.4
20160630061126 55 51 0.0 0.0 0.00 0.09 0.00 96 1011.5
20160630055622 56 51 0.0 0.0 0.00 0.27 0.00 96 1011.4
20160630054123 56 51 0.0 0.0 0.00 0.27 0.00 96 1011.4
20160630052628 56 51 0.0 0.0 0.00 0.27 0.00 95 1011.5
20160630051117 57 51 0.0 0.0 0.00 0.27 0.00 95 1011.5
20160630045617 57 51 0.0 0.0 0.00 0.27 0.00 95 1011.4
20160630044115 58 51 0.0 0.0 0.00 0.27 0.00 95 1011.5
20160630042616 58 51 0.0 0.0 0.00 0.27 0.00 95 1011.5
20160630041114 58 51 0.0 0.0 0.00 0.27 0.00 94 1011.6
20160630035613 58 51 0.0 0.0 0.00 0.27 0.27 94 1011.4
20160630034119 59 51 0.0 0.0 0.00 0.27 0.27 94 1011.4
20160630032610 59 51 0.0 0.0 0.00 0.27 0.27 93 1011.3
20160630031119 60 51 0.0 0.0 0.00 0.27 0.27 93 1011.3
20160630025615 60 51 0.0 1.0 0.00 0.27 0.27 92 1011.3
20160630024102 61 51 0.0 0.0 0.00 0.27 0.27 91 1011.1
20160630022600 61 51 0.0 0.0 0.00 0.27 0.27 90 1011.1
20160630021054 62 51 0.0 0.0 0.00 0.27 0.27 88 1011.1
20160630015551 63 51 0.0 0.0 0.00 0.27 0.27 86 1010.9
20160630014048 63 51 0.0 0.0 0.00 0.27 0.27 84 1010.7
20160630012546 64 51 0.0 0.0 0.00 0.27 0.27 83 1010.5
20160630011045 65 51 0.0 0.0 0.00 0.27 0.27 79 1010.2
20160630005541 67 51 0.0 0.0 0.00 0.27 0.27 78 1010.0
20160630004041 68 51 0.0 0.0 0.00 0.27 0.27 75 1009.8
20160630002550 69 51 0.0 0.0 0.00 0.27 0.27 74 1009.8
20160630001039 70 51 0.0 0.0 0.00 0.27 0.27 73 1009.7
20160629235539 71 51 0.0 3.0 0.00 0.27 0.27 68 1009.6
20160629234037 72 5 0.0 2.0 0.00 0.27 0.27 63 1009.5
20160629232537 74 9 0.0 5.0 0.00 0.27 0.27 62 1009.4
20160629231037 75 262 0.0 4.0 0.00 0.27 0.27 57 1009.4
20160629225538 76 315 1.0 5.0 0.00 0.27 0.27 53 1009.3
20160629224037 76 28 0.0 5.0 0.00 0.27 0.27 55 1009.1
20160629222537 76 46 0.0 3.0 0.00 0.27 0.27 55 1009.1
20160629221036 79 39 1.0 7.0 0.00 0.27 0.27 55 1009.0
20160629215538 80 63 2.0 7.0 0.00 0.27 0.27 46 1009.1
20160629214037 81 286 0.0 5.0 0.00 0.27 0.27 50 1009.0
20160629212532 81 126 0.0 6.0 0.00 0.27 0.27 48 1008.9
20160629211034 81 317 1.0 7.0 0.00 0.27 0.27 46 1008.9
20160629205531 81 223 1.0 4.0 0.00 0.27 0.27 49 1008.8
20160629204031 80 142 1.0 6.0 0.00 0.27 0.27 46 1008.8
20160629202544 81 117 0.0 6.0 0.00 0.27 0.27 50 1008.9
20160629201029 81 192 2.0 8.0 0.00 0.27 0.27 47 1008.7
20160629195532 80 145 2.0 8.0 0.00 0.27 0.27 47 1008.7
20160629194029 81 131 2.0 10.0 0.00 0.27 0.27 51 1008.8
20160629192531 81 146 2.0 5.0 0.00 0.27 0.27 52 1008.7
20160629191021 80 336 2.0 6.0 0.00 0.27 0.27 54 1008.7
20160629185521 81 82 1.0 6.0 0.00 0.27 0.27 56 1008.7
20160629184018 79 178 0.0 8.0 0.00 0.27 0.27 62 1008.7
20160629182520 79 78 2.0 6.0 0.00 0.27 0.27 60 1008.7
20160629181016 78 79 1.0 4.0 0.00 0.27 0.27 62 1008.7
20160629175517 79 233 2.0 7.0 0.00 0.27 0.27 60 1008.7
20160629174016 78 174 1.0 4.0 0.00 0.27 0.27 67 1008.7